DEHRS EDWY-EDWG

Flight info

Callsign DEHRS
Flight time 0h 13m
Altitude 3000
Route EDWG
Aircraft C172/L-SFG/C

Departure

Time 2026-05-06 08:05
Airport Norderney Airport (EDWY)

Arrival

Time 2026-05-06 08:18
Airport Wangerooge Airport (EDWG)
Time Latitude Longitude Altitude Speed Heading
2026-05-06 08:01 53.70782 7.22758 6 ft 0 kts 258°
2026-05-06 08:01 53.70781 7.22756 6 ft 3 kts 259°
2026-05-06 08:02 53.70777 7.22719 10 ft 0 kts 258°
2026-05-06 08:02 53.70773 7.22689 10 ft 7 kts 250°
2026-05-06 08:03 53.70752 7.22600 10 ft 14 kts 262°
2026-05-06 08:03 53.70730 7.22431 11 ft 13 kts 245°
2026-05-06 08:03 53.70701 7.22318 13 ft 9 kts 246°
2026-05-06 08:03 53.70661 7.22302 12 ft 8 kts 92°
2026-05-06 08:04 53.70671 7.22571 10 ft 48 kts 87°
2026-05-06 08:04 53.70704 7.23361 15 ft 82 kts 85°
2026-05-06 08:04 53.70773 7.24366 126 ft 88 kts 76°
2026-05-06 08:04 53.70959 7.25359 255 ft 93 kts 71°
2026-05-06 08:05 53.71118 7.26434 378 ft 95 kts 73°
2026-05-06 08:05 53.71267 7.27520 503 ft 95 kts 73°
2026-05-06 08:05 53.71407 7.28606 637 ft 96 kts 73°
2026-05-06 08:05 53.71541 7.29700 766 ft 95 kts 73°
2026-05-06 08:06 53.71672 7.30802 891 ft 98 kts 75°
2026-05-06 08:06 53.71819 7.31967 902 ft 104 kts 75°
2026-05-06 08:06 53.71963 7.33186 900 ft 108 kts 74°
2026-05-06 08:06 53.72112 7.34444 914 ft 110 kts 75°
2026-05-06 08:07 53.72257 7.35718 903 ft 110 kts 74°
2026-05-06 08:07 53.72407 7.36973 900 ft 109 kts 75°
2026-05-06 08:07 53.72555 7.38211 899 ft 106 kts 75°
2026-05-06 08:07 53.72703 7.39427 889 ft 106 kts 75°
2026-05-06 08:08 53.72844 7.40644 909 ft 106 kts 75°
2026-05-06 08:08 53.72986 7.41856 909 ft 105 kts 75°
2026-05-06 08:08 53.73132 7.43086 911 ft 108 kts 75°
2026-05-06 08:08 53.73279 7.44341 911 ft 109 kts 75°
2026-05-06 08:09 53.73426 7.45594 911 ft 109 kts 75°
2026-05-06 08:09 53.73573 7.46846 911 ft 109 kts 75°
2026-05-06 08:09 53.73712 7.48108 891 ft 109 kts 76°
2026-05-06 08:09 53.73868 7.49340 909 ft 106 kts 74°
2026-05-06 08:10 53.74013 7.50572 888 ft 107 kts 75°
2026-05-06 08:10 53.74156 7.51815 898 ft 109 kts 75°
2026-05-06 08:10 53.74302 7.53075 900 ft 109 kts 76°
2026-05-06 08:10 53.74449 7.54331 902 ft 110 kts 75°
2026-05-06 08:11 53.74598 7.55608 892 ft 111 kts 76°
2026-05-06 08:11 53.74747 7.56881 894 ft 111 kts 75°
2026-05-06 08:11 53.74897 7.58176 889 ft 113 kts 75°
2026-05-06 08:11 53.75049 7.59467 895 ft 110 kts 74°
2026-05-06 08:12 53.75195 7.60740 897 ft 112 kts 75°
2026-05-06 08:12 53.75340 7.62039 889 ft 113 kts 76°
2026-05-06 08:12 53.75497 7.63328 883 ft 111 kts 75°
2026-05-06 08:12 53.75642 7.64597 882 ft 111 kts 76°
2026-05-06 08:13 53.75787 7.65854 884 ft 108 kts 75°
2026-05-06 08:13 53.75934 7.67109 884 ft 106 kts 75°
2026-05-06 08:13 53.76069 7.68309 886 ft 105 kts 75°
2026-05-06 08:13 53.76212 7.69527 885 ft 106 kts 75°
2026-05-06 08:14 53.76353 7.70749 884 ft 106 kts 75°
2026-05-06 08:14 53.76494 7.71972 883 ft 106 kts 76°
2026-05-06 08:14 53.76637 7.73201 887 ft 107 kts 76°
2026-05-06 08:14 53.76777 7.74446 887 ft 108 kts 76°
2026-05-06 08:15 53.76914 7.75696 892 ft 109 kts 75°
2026-05-06 08:15 53.77069 7.76961 898 ft 111 kts 76°
2026-05-06 08:15 53.77220 7.78258 899 ft 114 kts 76°
2026-05-06 08:15 53.77372 7.79582 896 ft 116 kts 76°
2026-05-06 08:16 53.77513 7.80913 897 ft 114 kts 75°
2026-05-06 08:16 53.77667 7.82229 889 ft 112 kts 74°
2026-05-06 08:16 53.77771 7.83096 893 ft 111 kts 75°
2026-05-06 08:16 53.77914 7.84367 899 ft 113 kts 76°
2026-05-06 08:17 53.78059 7.85678 867 ft 115 kts 77°
2026-05-06 08:17 53.78169 7.87033 765 ft 109 kts 74°
2026-05-06 08:17 53.78243 7.88200 732 ft 96 kts 80°
2026-05-06 08:17 53.78287 7.89351 538 ft 99 kts 80°
2026-05-06 08:18 53.78315 7.90546 241 ft 101 kts 88°
2026-05-06 08:18 53.78265 7.91677 14 ft 86 kts 94°
2026-05-06 08:18 53.78233 7.92454 10 ft 43 kts 94°
2026-05-06 08:18 53.78273 7.92605 11 ft 8 kts 338°
2026-05-06 08:19 53.78292 7.92513 9 ft 11 kts 275°
2026-05-06 08:19 53.78300 7.92346 7 ft 17 kts 273°
2026-05-06 08:19 53.78310 7.92096 4 ft 26 kts 274°
2026-05-06 08:19 53.78324 7.91766 4 ft 32 kts 273°
2026-05-06 08:20 53.78377 7.91390 8 ft 33 kts 307°
2026-05-06 08:20 53.78495 7.91113 6 ft 20 kts 311°
2026-05-06 08:20 53.78601 7.91012 5 ft 15 kts 340°
2026-05-06 08:20 53.78688 7.90958 6 ft 12 kts 344°
2026-05-06 08:21 53.78752 7.90915 6 ft 8 kts 333°
2026-05-06 08:21 53.78782 7.90880 8 ft 0 kts 324°